EW6434 Weather Reports


time (UTC)temp
F
wind
direction
speed
knots
gust
knots
rain 1hr
in
rain 24hr
in
rain mn
in
humidity
%
barometer
mb
20260903074510 43 258 0.0 0.0 0.00 0.17 0.00 96 1015.1
20260903073008 43 259 0.0 0.0 0.00 0.17 0.00 96 1015.1
20260903071508 43 259 0.0 0.0 0.00 0.17 0.00 96 1015.2
20260903070016 43 259 0.0 0.0 0.00 0.17 0.00 96 1015.3
20260903064506 43 259 0.0 0.0 0.00 0.17 0.00 96 1015.1
20260903063005 44 259 0.0 0.0 0.00 0.17 0.00 96 1015.2
20260903061512 43 259 0.0 0.0 0.00 0.17 0.00 96 1015.0
20260903060002 43 259 0.0 0.0 0.00 0.17 0.17 96 1015.1
20260903054505 43 259 0.0 0.0 0.00 0.17 0.17 96 1015.1
20260903053102 43 258 0.0 0.0 0.00 0.17 0.17 96 1015.1
20260903051600 43 259 0.0 0.0 0.00 0.17 0.17 96 1015.2
20260903050100 43 259 0.0 0.0 0.00 0.17 0.17 95 1015.3
20260903044559 44 259 0.0 0.0 0.00 0.17 0.17 95 1015.4
20260903043058 44 259 0.0 0.0 0.00 0.17 0.17 95 1015.3
20260903041559 44 259 0.0 0.0 0.00 0.17 0.17 95 1015.2
20260903040059 45 259 0.0 0.0 0.00 0.17 0.17 95 1015.2
20260903034558 45 258 0.0 0.0 0.00 0.17 0.17 95 1015.2
20260903033101 45 259 0.0 0.9 0.00 0.17 0.17 95 1015.1
20260903031557 45 259 0.0 0.0 0.00 0.17 0.17 95 1015.0
20260903030119 46 258 0.0 0.0 0.00 0.17 0.17 94 1014.8
20260903024556 46 259 0.0 0.0 0.00 0.17 0.17 94 1014.8
20260903023055 47 259 0.0 0.0 0.00 0.17 0.17 94 1014.5
20260903021555 47 259 0.0 0.0 0.00 0.17 0.17 94 1014.3
20260903020104 47 259 0.0 0.0 0.00 0.17 0.17 93 1013.9
20260903014554 48 259 0.0 0.0 0.00 0.17 0.17 92 1013.9
20260903013053 48 259 0.0 0.0 0.00 0.17 0.17 92 1013.9
20260903011553 49 259 0.0 0.0 0.00 0.17 0.17 90 1013.7
20260903010052 50 200 0.0 0.0 0.01 0.17 0.17 90 1013.6
20260903004552 51 200 0.0 0.0 0.04 0.17 0.17 89 1013.8
20260903003051 52 207 0.0 0.9 0.08 0.17 0.17 87 1014.0
20260903001604 53 265 0.0 0.9 0.10 0.17 0.17 85 1014.2
20260903000056 52 60 0.0 0.9 0.09 0.16 0.16 89 1014.8
20260902234549 53 167 0.0 0.9 0.06 0.13 0.13 86 1014.8
20260902233055 55 200 0.0 0.0 0.02 0.09 0.09 82 1013.5
20260902231553 57 200 0.0 0.0 0.00 0.07 0.07 72 1013.3
20260902230049 57 123 0.0 0.0 0.00 0.07 0.07 70 1012.9
20260902224548 57 123 0.0 0.0 0.02 0.07 0.07 74 1013.0
20260902223046 57 117 0.0 0.9 0.04 0.07 0.07 79 1013.4
20260902221607 55 198 0.0 0.0 0.04 0.07 0.07 82 1014.0
20260902220048 54 54 0.0 0.9 0.04 0.07 0.07 80 1014.5
20260902214544 58 270 0.0 6.1 0.02 0.05 0.05 71 1014.7
20260902213048 63 275 0.0 5.2 0.00 0.03 0.03 49 1013.2
20260902211552 64 74 0.0 4.3 0.00 0.03 0.03 45 1012.8
20260902210042 65 60 0.9 4.3 0.00 0.03 0.03 42 1012.9
20260902204555 67 96 0.9 4.3 0.00 0.03 0.03 43 1012.8
20260902203038 70 231 0.0 4.3 0.00 0.03 0.03 46 1013.0
20260902201542 68 173 0.0 6.1 0.00 0.03 0.03 43 1013.2
20260902200038 69 60 1.7 7.0 0.00 0.03 0.03 41 1013.2
20260902194547 66 68 0.0 6.1 0.00 0.03 0.03 46 1013.6
20260902193029 64 161 0.0 7.8 0.00 0.03 0.03 46 1013.9
20260902191537 67 254 0.0 5.2 0.00 0.03 0.03 44 1013.9
20260902190027 66 101 0.9 7.8 0.00 0.03 0.03 43 1014.2
20260902184525 66 55 1.7 9.6 0.00 0.03 0.03 46 1014.4
20260902183028 66 127 0.0 9.6 0.00 0.03 0.03 47 1014.2
20260902181522 67 151 2.6 7.0 0.00 0.03 0.03 47 1014.5
20260902180018 65 151 0.9 4.3 0.00 0.03 0.03 48 1014.8
20260902174516 64 195 0.0 2.6 0.00 0.03 0.03 46 1014.9
20260902173014 64 273 0.0 3.5 0.01 0.03 0.03 49 1015.1
20260902171513 65 136 0.9 5.2 0.01 0.03 0.03 47 1015.3
20260902170010 64 157 0.0 7.8 0.01 0.03 0.03 51 1015.3
20260902164507 63 114 0.9 3.5 0.01 0.03 0.03 51 1015.5
20260902163003 62 103 0.0 7.0 0.00 0.02 0.02 55 1015.4
20260902161601 60 121 0.0 3.5 0.00 0.02 0.02 60 1015.6
20260902160107 59 139 0.0 1.7 0.00 0.02 0.02 64 1015.6
20260902154558 57 131 0.0 0.0 0.00 0.03 0.02 77 1015.7
20260902153048 54 225 0.0 0.0 0.00 0.03 0.02 89 1015.8
20260902151546 49 225 0.0 0.0 0.00 0.03 0.02 95 1016.0
20260902150040 47 224 0.0 0.0 0.00 0.03 0.02 97 1016.6
20260902144537 44 228 0.0 0.0 0.00 0.03 0.02 97 1016.7
20260902143037 43 228 0.0 0.0 0.00 0.03 0.02 96 1016.7
20260902141538 42 228 0.0 0.0 0.00 0.03 0.02 96 1016.6
20260902140039 42 228 0.0 0.0 0.00 0.03 0.02 96 1016.8
20260902134539 42 228 0.0 0.0 0.00 0.03 0.02 96 1016.9
20260902133035 42 228 0.0 0.0 0.00 0.03 0.02 96 1017.0
20260902131540 42 228 0.0 0.0 0.00 0.03 0.02 96 1016.9
20260902130048 42 228 0.0 0.0 0.00 0.03 0.02 95 1016.9
20260902124533 42 228 0.0 0.0 0.00 0.03 0.02 95 1017.0
20260902123032 43 228 0.0 0.0 0.00 0.03 0.02 95 1016.9
20260902121531 43 228 0.0 0.0 0.00 0.03 0.02 96 1016.8
20260902120030 43 229 0.0 0.0 0.00 0.03 0.02 95 1016.9
20260902114533 43 229 0.0 0.0 0.00 0.03 0.02 95 1016.9
20260902113028 43 229 0.0 0.0 0.00 0.03 0.02 95 1016.8
20260902111532 43 229 0.0 0.0 0.00 0.03 0.02 95 1016.6
20260902110041 43 229 0.0 0.0 0.00 0.03 0.02 94 1016.8
20260902104536 43 229 0.0 0.0 0.00 0.03 0.02 94 1016.6
20260902103032 44 229 0.0 0.0 0.00 0.03 0.02 94 1016.6
20260902101524 44 229 0.0 0.0 0.02 0.03 0.02 93 1016.7
20260902100024 44 229 0.0 0.0 0.02 0.03 0.02 93 1016.8
20260902094523 44 229 0.0 0.0 0.02 0.03 0.02 92 1016.9
20260902093034 44 229 0.0 0.0 0.02 0.03 0.02 90 1017.3
20260902091521 44 225 0.0 0.0 0.00 0.01 0.00 87 1016.9
20260902090020 44 225 0.0 0.0 0.00 0.01 0.00 87 1016.3
20260902084523 44 225 0.0 0.0 0.00 0.01 0.00 87 1016.6
20260902083020 44 225 0.0 0.0 0.00 0.01 0.00 85 1016.6
20260902081515 44 225 0.0 0.0 0.00 0.01 0.00 84 1016.8
20260902080023 44 225 0.0 0.0 0.00 0.01 0.00 83 1016.8